This is the latest recevied weather packets stored in our database for station/object W8DRH-13. If no packets are shown the sender has not sent any weather packets the latest 10 day(s).
| Time | Temp. | Humidity | Pressure | Rain* | Wind** | Luminosity | Snow |
|---|---|---|---|---|---|---|---|
| 1778165945 | 10° C | 60% | 1011.6 hPa | 0 mm | - | 733 W/m² | - |
| 1778165641 | 10° C | 59% | 1011.4 hPa | 0 mm | - | 758 W/m² | - |
| 1778165338 | 10° C | 61% | 1011.5 hPa | 0 mm | - | 753 W/m² | - |
| 1778165035 | 10° C | 58% | 1011.6 hPa | 0 mm | - | 752 W/m² | - |
| 1778164732 | 10° C | 60% | 1011.6 hPa | 0 mm | - | 727 W/m² | - |
| 1778164429 | 10° C | 58% | 1011.5 hPa | 0 mm | - | 729 W/m² | - |
| 1778164126 | 10° C | 60% | 1011.4 hPa | 0 mm | - | 691 W/m² | - |
| 1778163822 | 10° C | 63% | 1011.6 hPa | 0 mm | - | 696 W/m² | - |
| 1778163519 | 10° C | 61% | 1011.7 hPa | 0 mm | - | 661 W/m² | - |
| 1778163215 | 9.44° C | 62% | 1011.5 hPa | 0 mm | - | 649 W/m² | - |
| 1778162912 | 9.44° C | 62% | 1011.6 hPa | 0 mm | - | 610 W/m² | - |
| 1778162609 | 9.44° C | 61% | 1011.6 hPa | 0 mm | - | 606 W/m² | - |
| 1778162307 | 9.44° C | 64% | 1011.7 hPa | 0 mm | - | 558 W/m² | - |
| 1778162003 | 8.89° C | 63% | 1011.7 hPa | 0 mm | - | 558 W/m² | - |
| 1778161700 | 8.89° C | 65% | 1011.5 hPa | 0 mm | - | 540 W/m² | - |
| 1778161396 | 8.89° C | 66% | 1011.5 hPa | 0 mm | - | 524 W/m² | - |
| 1778161092 | 8.89° C | 68% | 1011.7 hPa | 0 mm | - | 432 W/m² | - |
| 1778160788 | 8.33° C | 68% | 1011.7 hPa | 0 mm | - | 428 W/m² | - |
| 1778160487 | 8.33° C | 69% | 1011.7 hPa | 0 mm | - | 394 W/m² | - |
| 1778160183 | 7.78° C | 69% | 1011.7 hPa | 0 mm | - | 390 W/m² | - |
| 1778159880 | 7.78° C | 70% | 1011.8 hPa | 0 mm | - | 272 W/m² | - |
| 1778159577 | 7.78° C | 70% | 1011.8 hPa | 0 mm | - | 244 W/m² | - |
| 1778159273 | 7.78° C | 71% | 1011.7 hPa | 0 mm | - | 117 W/m² | - |
| 1778158971 | 7.78° C | 71% | 1011.8 hPa | 0 mm | - | 116 W/m² | - |
| 1778158670 | 7.78° C | 71% | 1011.7 hPa | 0 mm | - | 125 W/m² | - |
* Rain latest hour (hover to see other rain measurements)
** Current wind speed in m/s (hover to see current wind gust speed)